Date,TemperatureHighF,TemperatureAvgF,TemperatureLowF,DewpointHighF,DewpointAvgF,DewpointLowF,HumidityHigh,HumidityAvg,HumidityLow,PressureMaxIn,PressureMinIn,WindSpeedMaxMPH,WindSpeedAvgMPH,GustSpeedMaxMPH,PrecipitationSumIn
2012-1-1,31.3,24.1,18.6,17.4,12.5,6.2,78,61,48,30.77,30.58,4,0,7,0.00
2012-1-2,41.8,29.9,21.4,24.0,19.3,15.6,82,66,35,30.69,30.14,6,0,10,0.00
2012-1-3,42.5,38.3,34.7,22.9,19.5,16.4,56,47,35,30.39,30.14,14,0,20,0.00
2012-1-4,48.8,40.8,31.8,24.8,20.8,16.3,61,45,30,30.40,30.07,8,0,14,0.00
2012-1-5,47.6,39.9,28.8,27.2,18.8,10.5,58,43,27,30.13,29.92,11,1,16,0.00
2012-1-6,31.0,28.8,26.1,14.4,11.5,8.1,56,48,38,30.31,30.14,16,1,16,0.00
2012-1-7,31.0,26.9,24.4,13.7,11.7,10.4,58,52,45,30.41,30.30,7,1,13,0.00
2012-1-8,41.5,34.6,25.4,27.1,21.6,11.4,74,59,49,30.39,30.27,10,1,12,0.00
2012-1-9,41.1,33.4,28.2,26.9,24.0,21.2,81,69,53,30.38,30.09,4,0,5,0.00
2012-1-10,41.6,30.3,12.9,31.0,20.0,4.3,86,67,46,30.59,29.87,12,1,13,0.01
2012-1-11,12.9,10.5,8.8,5.5,3.9,2.2,78,74,70,30.72,30.59,6,0,9,0.00
2012-1-12,25.0,16.8,8.8,15.7,9.3,2.3,82,72,58,30.65,30.32,2,0,4,0.00
2012-1-13,40.2,30.2,24.8,16.9,12.2,2.0,69,48,22,30.34,30.17,10,0,13,0.03
2012-1-14,39.2,30.4,23.2,22.6,15.3,10.0,67,53,32,30.17,29.62,6,0,13,0.02
2012-1-15,35.3,20.2,6.7,23.1,7.7,-2.0,79,59,32,30.14,29.61,11,0,11,0.00
2012-1-16,11.2,5.4,-0.2,3.9,-2.2,-7.9,78,70,61,30.34,30.11,3,0,3,0.00
2012-1-17,24.8,18.6,8.1,13.2,2.6,-4.5,70,50,36,30.33,29.74,17,2,18,0.00
2012-1-18,23.5,1.4,-8.6,15.3,-6.4,-17.2,80,69,64,30.15,29.74,13,0,13,0.00
2012-1-19,8.6,1.7,-8.2,1.4,-5.5,-16.5,78,71,65,30.18,29.90,2,0,3,0.00
2012-1-20,25.8,9.6,-0.8,23.5,3.5,-7.6,91,76,67,30.21,29.72,3,0,3,0.00
2012-1-21,37.0,32.1,19.2,33.4,27.0,14.2,92,82,55,29.70,29.27,7,0,15,0.20
2012-1-22,30.0,25.6,21.6,20.8,12.7,5.9,72,58,38,30.03,29.68,7,0,19,0.00
2012-1-23,35.2,27.1,21.3,22.2,15.6,11.1,72,62,43,30.14,29.86,9,0,10,0.02
2012-1-24,34.6,22.4,15.2,17.0,9.2,3.9,69,57,39,30.36,29.99,9,0,17,0.00
2012-1-25,42.6,35.3,28.8,32.2,23.2,16.0,84,62,45,30.18,29.86,19,2,19,0.16
2012-1-26,40.5,33.3,25.6,28.7,20.0,7.1,71,58,36,30.17,29.76,10,1,14,0.05
2012-1-27,29.1,24.7,20.8,11.1,4.3,-4.0,56,42,24,30.53,30.18,13,1,15,0.00
2012-1-28,36.9,28.9,21.6,27.3,10.5,-3.9,70,47,22,30.46,30.19,8,0,11,0.00
2012-1-29,48.6,40.9,36.3,29.0,26.0,18.7,72,56,36,30.19,29.72,14,1,16,0.01
2012-1-30,42.6,38.2,32.1,28.1,23.0,18.3,68,54,42,29.95,29.64,11,1,14,0.00
2012-1-31,40.2,32.5,25.6,24.6,18.7,13.7,70,57,36,30.19,29.94,13,0,13,0.00
2012-2-1,39.2,31.3,24.4,25.5,19.3,12.9,73,61,38,30.17,29.99,4,0,10,0.00
2012-2-2,33.8,29.4,21.3,25.9,21.3,15.6,88,72,59,30.55,30.17,7,0,10,0.03
2012-2-3,29.4,21.3,14.8,19.8,15.3,10.0,86,77,63,30.67,30.52,3,0,4,0.00
2012-2-4,27.9,21.1,13.8,18.0,13.7,8.8,83,73,62,30.66,30.52,2,0,3,0.00
2012-2-5,30.9,22.2,13.3,22.6,13.4,7.2,80,69,56,30.56,30.39,3,0,5,0.00
2012-2-6,31.0,26.0,22.2,23.7,20.5,16.7,88,79,71,30.56,30.41,7,0,9,0.00
2012-2-7,23.6,19.8,12.4,17.2,13.7,7.1,82,77,66,30.55,30.38,3,0,5,0.00
2012-2-8,35.0,21.0,9.2,21.3,12.4,3.6,83,70,42,30.50,30.34,6,0,7,0.00
2012-2-9,41.3,34.7,26.4,26.4,23.2,19.1,76,63,45,30.34,30.26,14,0,14,0.04
2012-2-10,27.0,21.2,16.7,20.1,15.5,11.8,84,78,69,30.49,30.27,4,0,4,0.00
2012-2-11,20.8,16.1,11.1,13.9,10.7,6.0,82,79,73,30.49,30.28,3,0,4,0.00
2012-2-12,26.1,20.1,11.1,22.6,15.0,6.2,89,80,66,30.28,29.95,3,0,3,0.00
2012-2-13,37.2,28.7,19.9,25.6,21.3,14.8,91,74,52,29.98,29.83,3,0,4,0.14
2012-2-14,29.8,25.7,18.9,21.1,15.2,8.0,85,65,40,30.04,29.81,6,0,10,0.00
2012-2-15,32.4,25.7,18.1,17.4,13.0,9.3,71,59,43,30.34,30.03,8,0,11,0.00
2012-2-16,34.6,27.6,16.7,20.0,14.2,8.8,74,58,36,30.40,30.19,4,0,5,0.01
2012-2-17,38.0,30.5,23.5,23.5,19.9,16.2,77,65,48,30.29,30.08,10,0,10,0.02
2012-2-18,37.2,29.3,23.5,23.4,17.3,10.8,76,61,34,30.09,29.94,7,0,11,0.01
2012-2-19,34.3,26.4,19.9,15.8,11.2,7.4,69,53,36,30.02,29.90,7,0,12,0.00
2012-2-20,32.9,26.8,21.0,20.5,13.2,7.8,72,57,39,30.02,29.93,6,0,7,0.00
2012-2-21,41.5,34.5,27.5,33.3,25.8,18.5,91,71,52,29.95,29.68,11,0,17,0.08
2012-2-22,43.1,36.5,26.3,35.1,28.0,16.1,92,72,47,29.84,29.38,23,2,26,0.07
2012-2-23,32.2,27.1,24.7,17.0,13.7,9.0,68,57,39,30.24,29.83,12,1,19,0.00
2012-2-24,36.9,30.0,24.7,22.3,15.4,9.6,67,55,35,30.32,29.78,11,1,11,0.02
2012-2-25,34.1,30.6,25.8,26.4,17.5,8.1,80,58,44,29.95,29.44,11,1,15,0.00
2012-2-26,30.1,24.9,18.8,16.6,12.4,3.5,77,59,32,30.19,29.95,6,0,9,0.00
2012-2-27,28.5,23.5,15.6,14.1,12.0,8.9,79,62,43,30.20,29.66,8,0,8,0.00
2012-2-28,31.3,25.3,0.0,14.0,11.0,-99.9,68,56,41,29.99,29.57,4,-7,5,0.00
2012-2-29,41.2,26.7,19.2,24.6,12.9,5.2,80,56,33,29.91,29.55,12,0,14,0.00
2012-3-1,30.9,24.1,18.6,16.7,8.7,3.8,61,52,36,30.10,29.77,14,0,15,0.00
2012-3-2,31.2,26.5,21.8,14.4,9.8,6.2,63,49,35,30.27,30.10,16,1,18,0.00
2012-3-3,43.3,36.5,27.9,27.8,21.8,13.0,63,55,48,30.22,30.03,16,1,19,0.00
2012-3-4,53.2,42.2,35.0,26.7,22.3,13.8,63,47,23,30.17,29.92,6,0,11,0.00
2012-3-5,55.0,43.9,36.8,26.5,20.2,13.7,64,40,21,29.91,29.36,13,1,19,0.00
2012-3-6,37.3,25.4,15.2,29.5,15.7,6.3,89,68,37,30.17,29.41,10,0,13,0.04
2012-3-7,33.7,25.2,15.6,15.7,9.3,4.2,77,51,31,30.47,30.13,10,1,17,0.01
2012-3-8,41.5,32.2,22.5,25.7,18.3,13.1,70,57,39,30.59,30.39,4,0,9,0.02
2012-3-9,58.4,42.6,30.6,29.8,20.0,8.8,67,43,14,30.41,29.97,6,0,9,0.00
2012-3-10,62.3,44.9,35.9,24.4,18.2,10.9,59,36,14,29.97,29.65,11,0,13,0.00
2012-3-11,60.4,42.8,32.8,29.7,21.2,13.5,70,46,18,29.70,29.36,14,1,24,0.00
2012-3-12,53.3,37.6,25.3,26.7,19.3,11.9,72,50,26,29.92,29.60,8,1,16,0.00
2012-3-13,59.0,41.8,27.9,24.9,20.3,13.2,76,45,21,29.79,29.21,23,1,23,0.00
2012-3-14,43.6,35.6,28.7,27.5,22.3,13.2,76,59,42,30.00,29.76,6,0,7,0.01
2012-3-15,36.2,33.4,31.0,27.9,26.5,25.1,82,75,70,29.99,29.92,2,0,3,0.00
2012-3-16,45.2,39.2,32.4,40.6,33.0,27.6,92,79,63,29.71,29.53,6,0,11,0.10
2012-3-17,53.8,37.1,31.0,44.9,32.9,26.1,91,85,57,29.69,29.25,11,0,13,0.10
2012-3-18,34.3,31.8,27.5,31.4,28.9,25.0,92,89,82,29.53,29.36,4,0,6,0.13
2012-3-19,34.1,27.7,17.3,26.8,22.1,11.5,90,80,59,29.93,29.52,11,0,12,0.12
2012-3-20,41.3,28.8,16.7,27.7,19.8,11.2,83,70,48,29.98,29.79,15,1,16,0.17
2012-3-21,50.1,37.4,27.3,33.2,27.8,23.1,87,69,43,29.97,29.81,4,0,10,0.17
2012-3-22,67.6,46.3,35.6,32.2,28.8,21.0,74,54,17,29.88,29.62,11,1,14,0.00
2012-3-23,37.8,33.1,29.7,30.0,27.1,23.4,90,79,60,30.22,29.75,6,0,7,0.03
2012-3-24,34.4,30.2,25.1,31.7,27.7,22.3,93,91,88,30.27,30.12,4,0,5,0.08
2012-3-25,40.3,32.3,28.1,35.4,29.6,26.1,93,90,80,30.15,29.78,2,0,4,0.04
2012-3-26,49.1,36.2,26.6,37.8,30.7,24.3,95,81,58,29.85,29.50,6,0,10,0.02
2012-3-27,59.0,42.6,30.3,28.6,22.9,15.8,79,50,19,29.97,29.81,11,1,15,0.00
2012-3-28,62.4,41.6,31.5,36.2,29.5,24.7,91,65,27,29.93,29.59,11,0,11,0.07
2012-3-29,61.5,41.1,27.8,28.7,23.3,18.2,90,54,19,29.97,29.67,14,1,18,0.02
2012-3-30,63.4,50.9,38.9,33.7,28.3,24.4,66,43,25,29.67,29.43,18,2,20,0.00
2012-3-31,69.6,50.9,38.8,48.6,36.2,32.2,85,60,27,29.60,29.25,8,0,12,0.02
2012-4-1,52.8,39.6,31.5,42.0,26.7,12.8,92,63,27,30.07,29.22,11,1,15,0.14
2012-4-2,53.3,35.7,26.3,16.3,12.8,3.8,60,41,15,30.36,30.07,11,0,11,0.00
2012-4-3,67.3,43.0,26.3,22.3,15.9,9.4,63,38,12,30.26,29.76,10,0,13,0.00
2012-4-4,75.1,46.8,31.2,29.6,22.2,14.4,66,41,12,29.87,29.37,14,1,20,0.00
2012-4-5,49.5,36.4,28.7,27.1,17.0,12.0,75,47,25,30.00,29.76,8,0,12,0.00
2012-4-6,34.4,30.4,26.1,28.4,26.2,22.2,91,84,72,30.31,29.83,6,0,8,0.14
2012-4-7,42.6,30.5,20.5,27.0,21.9,15.9,88,72,36,30.48,30.29,6,0,7,0.27
2012-4-8,51.4,34.8,23.6,30.2,22.7,17.8,80,64,30,30.49,30.31,9,0,11,0.00
2012-4-9,53.1,37.9,27.2,31.1,23.1,16.6,75,57,31,30.38,30.13,7,0,11,0.00
2012-4-10,62.3,43.3,30.1,36.4,29.3,24.6,85,61,28,30.15,29.85,6,0,9,0.00
2012-4-11,70.8,56.4,36.8,37.8,32.2,20.3,76,44,18,29.87,29.42,6,0,7,0.00
2012-4-12,56.0,45.6,34.3,40.2,31.4,20.9,89,60,30,29.76,29.35,13,1,15,0.16
2012-4-13,60.4,41.7,29.5,30.3,24.2,15.0,78,54,19,29.84,29.61,10,0,13,0.00
2012-4-14,61.6,43.3,30.4,27.4,17.6,-0.3,72,43,9,29.85,29.68,11,1,13,0.00
2012-4-15,39.6,32.1,28.7,30.0,26.8,23.8,90,81,61,30.19,29.84,4,0,5,0.12
2012-4-16,57.8,41.2,29.8,36.5,29.4,24.7,90,66,29,30.19,29.92,6,0,10,0.03
2012-4-17,61.5,45.3,33.7,34.2,25.7,16.6,82,50,18,30.07,29.93,12,1,13,0.00
2012-4-18,54.8,44.5,38.0,39.0,28.9,23.4,86,56,31,29.98,29.80,12,0,12,0.01
2012-4-19,56.7,44.5,35.5,29.8,23.5,15.7,75,47,20,30.08,29.92,10,1,12,0.00
2012-4-20,72.5,53.5,41.5,36.2,30.4,23.7,65,44,20,30.05,29.81,14,1,16,0.00
2012-4-21,68.1,52.5,43.9,39.6,36.3,33.1,78,56,29,30.13,29.97,12,0,12,0.00
2012-4-22,79.9,55.6,37.9,39.5,33.1,27.0,78,49,16,30.17,29.88,6,0,9,0.00
2012-4-23,81.1,61.1,45.4,49.2,37.1,31.9,62,43,18,29.94,29.67,6,0,13,0.00
2012-4-24,80.3,64.9,53.3,42.1,36.2,30.8,56,36,18,29.72,29.56,13,1,14,0.00
2012-4-25,75.8,56.8,46.4,42.2,37.0,32.7,72,50,24,29.82,29.64,7,1,10,0.00
2012-4-27,38.6,37.9,37.2,25.0,23.2,21.5,58,55,52,30.08,30.01,11,1,17,0.00
2012-4-28,46.0,40.1,36.9,34.5,25.1,21.0,81,55,41,30.15,30.03,11,1,13,0.01
2012-4-29,60.7,45.2,38.0,29.4,26.4,23.2,64,49,27,30.04,29.90,11,1,15,0.00
2012-4-30,64.3,47.5,38.8,43.0,32.0,25.5,82,56,25,29.91,29.45,11,1,17,0.02
2012-5-1,59.8,44.9,35.5,31.7,22.9,13.9,77,45,19,29.78,29.59,11,1,15,0.00
2012-5-2,51.1,38.4,27.6,29.0,20.7,16.1,68,50,27,30.00,29.71,12,1,18,0.00
2012-5-3,52.9,39.6,26.9,40.7,27.3,17.2,92,63,38,29.98,29.74,6,0,6,0.10
2012-5-4,64.0,46.3,34.0,41.4,34.7,27.2,92,69,26,29.99,29.78,7,0,10,0.17
2012-5-5,53.9,41.9,33.8,33.7,24.0,13.0,90,53,23,30.28,29.96,12,1,18,0.00
2012-5-6,55.3,42.1,34.1,36.5,22.1,16.0,70,46,24,30.41,30.25,8,1,11,0.00
2012-5-7,66.0,46.9,30.3,31.8,24.5,17.2,75,45,16,30.44,30.14,9,0,10,0.00
2012-5-8,76.3,55.4,38.3,33.6,27.3,22.7,68,38,14,30.15,29.84,6,0,11,0.00
2012-5-9,85.9,61.3,45.8,36.1,29.7,24.7,55,33,11,29.84,29.52,12,1,14,0.00
2012-5-10,57.5,46.0,34.1,33.5,11.5,-0.9,53,27,10,30.21,29.64,13,1,18,0.00
2012-5-11,60.5,43.0,26.4,24.8,13.0,7.0,49,31,16,30.32,30.13,12,1,12,0.00
2012-5-12,69.1,50.3,33.2,27.2,17.7,12.2,56,29,14,30.33,30.15,10,1,14,0.00
2012-5-13,81.2,55.1,41.2,30.8,20.5,11.8,42,28,8,30.25,30.00,9,0,10,0.00
2012-5-14,81.8,61.9,46.8,29.1,23.4,16.2,41,25,10,30.12,29.94,6,0,9,0.00
2012-5-15,84.0,63.1,44.6,40.4,31.0,26.2,61,33,15,30.03,29.72,8,0,11,0.00
2012-5-16,87.0,68.8,56.0,41.4,31.5,22.1,47,26,12,29.73,29.50,10,1,12,0.00
2012-5-17,68.3,57.0,44.5,44.5,32.8,24.2,86,43,23,29.70,29.58,7,0,9,0.05
2012-5-18,66.1,51.6,38.9,39.8,28.1,8.9,82,45,12,29.97,29.66,11,1,16,0.00
2012-5-19,64.8,48.6,33.7,33.0,25.3,20.9,65,43,21,30.07,29.95,12,1,13,0.00
2012-5-20,69.1,53.7,36.2,36.9,30.4,24.3,70,43,24,30.13,29.90,7,0,13,0.00
2012-5-21,82.6,61.1,49.1,60.1,42.5,33.6,94,53,20,29.94,29.54,10,0,12,0.09
2012-5-22,60.1,51.8,44.1,51.3,37.5,24.2,90,61,27,29.72,29.54,10,0,13,0.10
2012-5-23,57.2,46.4,39.9,32.6,28.2,22.7,72,51,28,29.78,29.66,13,1,17,0.00
2012-5-24,55.7,43.7,39.1,41.2,29.8,23.1,81,58,35,29.88,29.68,12,1,17,0.00
2012-5-25,42.9,37.9,35.3,35.3,30.9,23.9,89,77,49,29.99,29.87,10,1,15,0.09
2012-5-26,39.3,36.0,32.1,34.7,32.3,30.0,92,86,77,29.97,29.88,9,1,13,0.19
2012-5-27,41.8,34.1,31.8,35.3,31.3,29.8,92,89,73,30.05,29.84,4,0,5,0.76
2012-5-28,54.1,40.3,32.5,45.4,36.4,30.4,93,86,59,30.10,30.03,3,0,5,0.57
2012-5-29,66.3,50.5,36.5,50.7,38.4,33.0,91,66,35,30.07,29.86,7,0,15,0.02
2012-5-30,59.6,50.5,43.5,37.8,30.4,18.6,71,48,27,30.12,29.91,9,0,12,0.00
2012-5-31,65.6,51.0,40.5,47.3,40.2,33.9,79,67,45,30.14,29.91,6,0,11,0.00
2012-6-1,73.0,60.2,50.7,49.4,44.5,41.2,80,58,34,29.95,29.75,16,0,16,0.00
2012-6-2,80.3,56.4,47.3,57.8,46.0,38.7,89,70,27,29.80,29.44,10,0,13,0.06
2012-6-3,71.1,55.3,40.8,45.4,40.0,35.1,83,59,31,29.91,29.75,11,0,13,0.00
2012-6-4,86.1,63.0,47.3,52.7,46.0,40.8,81,57,27,29.84,29.44,11,1,14,0.00
2012-6-5,80.9,59.0,42.9,54.8,47.8,38.4,91,70,29,29.63,29.33,15,1,23,0.18
2012-6-6,67.3,50.4,39.2,38.4,31.6,22.3,89,54,20,30.04,29.60,20,2,20,0.05
2012-6-7,79.8,55.9,35.6,34.7,27.9,9.0,76,42,9,30.08,29.68,10,1,13,0.00
2012-6-8,69.9,54.0,42.1,49.6,35.7,27.3,90,53,24,29.76,29.55,5,0,10,0.07
2012-6-9,61.3,47.0,35.8,38.5,29.8,20.9,88,56,22,29.83,29.66,12,1,13,0.00
2012-6-10,48.5,45.8,43.6,36.4,31.8,25.5,68,58,48,30.16,29.74,10,1,12,0.00
2012-6-11,69.8,53.8,40.8,43.5,36.7,32.3,77,55,27,30.20,30.00,5,0,9,0.00
2012-6-12,74.9,57.9,43.1,50.9,39.8,33.9,83,54,24,30.04,29.74,11,0,14,0.03
2012-6-26,78.5,65.2,50.1,41.2,31.1,26.8,46,29,19,29.76,29.44,11,2,17,0.26
2012-6-27,82.4,60.9,41.6,31.8,26.1,16.1,61,31,10,29.94,29.69,15,1,15,0.00
2012-6-28,87.4,65.5,46.1,38.7,31.9,27.5,54,32,12,29.95,29.73,11,1,15,0.00
2012-6-29,93.6,69.9,53.8,44.1,37.4,24.7,59,33,9,29.83,29.67,11,1,16,0.00
2012-6-30,87.8,70.0,53.8,48.1,42.2,36.3,66,40,18,29.88,29.60,14,1,18,0.00
2012-7-1,85.5,67.1,54.4,58.3,45.2,39.6,92,50,22,29.85,29.55,15,1,15,0.35
2012-7-2,83.2,65.3,49.1,54.6,49.9,43.9,92,63,30,29.95,29.58,9,1,12,0.01
2012-7-3,82.2,68.2,55.3,50.7,44.2,33.5,71,45,23,29.79,29.41,12,1,17,0.00
2012-7-4,81.1,62.2,43.2,40.1,33.1,26.2,68,37,17,29.90,29.73,12,1,12,0.00
2012-7-5,80.5,64.5,52.3,46.0,34.2,22.9,57,34,18,29.89,29.76,7,0,10,0.00
2012-7-6,87.6,67.1,52.3,50.3,45.1,39.5,77,49,21,30.01,29.86,12,0,13,0.00
2012-7-7,88.4,67.3,57.8,59.7,46.6,37.1,86,51,17,30.10,29.93,10,0,14,0.15
2012-7-8,95.1,71.7,53.8,52.6,44.2,33.4,76,44,13,30.13,29.92,10,0,11,0.00
2012-7-9,65.6,62.1,58.3,44.0,43.1,41.5,59,50,42,29.97,29.91,1,0,1,0.00
2012-7-13,83.0,76.6,63.7,56.1,51.4,44.9,75,44,27,29.86,29.77,5,0,13,0.00
2012-7-14,80.1,66.9,59.5,60.1,55.8,53.4,91,69,42,29.85,29.68,12,0,12,0.14
2012-7-15,85.1,65.2,56.7,64.2,54.8,42.8,94,73,24,29.78,29.58,12,1,19,0.37
2012-7-16,83.6,61.9,52.6,59.2,52.1,47.9,93,74,30,29.90,29.70,7,0,14,0.16
2012-7-17,82.0,64.0,52.8,68.1,55.2,49.4,94,76,34,29.85,29.65,8,0,20,0.33
2012-7-18,99.0,74.1,55.9,54.8,44.9,32.3,74,43,10,29.85,29.61,12,1,16,0.00
2012-7-19,92.7,76.2,61.5,51.3,43.3,31.6,64,34,15,29.91,29.68,7,0,13,0.00
2012-7-20,94.5,74.8,64.5,61.5,47.4,40.0,81,40,16,29.91,29.72,9,0,12,0.03
2012-7-21,91.6,71.5,56.9,56.5,48.4,37.9,81,49,17,30.00,29.77,12,1,18,0.00
2012-7-22,96.1,72.8,57.0,51.5,42.8,32.0,57,37,13,29.94,29.71,7,0,16,0.00
2012-7-23,95.9,75.4,61.3,64.7,41.5,25.9,56,33,14,29.77,29.61,12,1,16,0.01
2012-7-24,92.3,69.9,51.7,35.8,28.7,22.9,39,23,10,29.88,29.69,18,1,19,0.00
2012-7-25,90.7,69.9,51.9,42.7,34.9,19.7,60,33,9,29.88,29.75,12,1,14,0.00
2012-7-26,80.7,66.6,54.4,62.2,45.3,41.1,90,48,25,29.94,29.79,8,0,12,0.04
2012-7-27,87.2,66.0,55.9,54.9,47.5,39.0,86,55,23,29.97,29.73,9,1,16,0.10
2012-7-28,88.2,67.6,52.2,64.7,48.3,34.0,83,54,20,30.00,29.77,10,0,12,0.03
2012-7-29,90.1,72.6,56.7,55.4,41.6,34.5,63,36,17,29.94,29.78,6,0,9,0.00
2012-7-30,96.6,72.8,57.6,46.5,38.8,30.7,54,31,10,29.88,29.65,14,0,14,0.00
2012-7-31,92.1,75.2,61.0,46.7,39.1,29.0,53,29,15,29.88,29.70,9,1,14,0.00
2012-8-1,92.9,75.0,59.8,35.7,30.2,25.2,37,21,10,29.90,29.72,10,1,15,0.00
2012-8-2,85.5,69.6,56.0,43.8,30.3,25.9,47,24,13,29.84,29.67,11,1,16,0.00
2012-8-3,71.5,57.1,43.6,46.0,39.4,32.0,90,56,26,30.09,29.77,10,1,12,0.04
2012-8-4,81.2,61.9,45.5,42.4,35.6,27.4,72,43,16,30.14,29.93,14,1,16,0.00
2012-8-5,94.5,68.1,51.6,37.3,31.0,27.0,51,28,11,30.00,29.80,10,1,12,0.00
2012-8-6,92.5,80.0,64.3,43.7,38.9,34.4,41,24,14,29.98,29.85,9,1,14,0.00
2012-8-7,97.3,73.4,57.0,44.5,36.9,27.2,53,30,9,30.04,29.84,8,0,14,0.00
2012-8-8,68.3,67.0,65.3,30.8,29.9,29.1,26,25,23,29.96,29.89,1,0,1,0.00
2012-8-12,88.0,77.6,65.8,48.8,42.3,33.0,51,30,19,29.99,29.82,10,1,12,0.00
2012-8-13,96.6,72.8,55.6,47.0,35.4,20.5,67,32,7,29.90,29.69,12,0,12,0.00
2012-8-14,98.0,76.8,58.7,34.9,30.9,24.5,37,20,10,29.74,29.52,12,1,21,0.00
2012-8-15,59.2,53.9,49.6,43.2,41.8,40.2,76,64,52,30.19,30.01,9,0,9,0.00
2012-8-16,80.7,59.9,41.8,45.1,40.1,37.0,85,53,24,30.18,29.90,9,0,11,0.00
2012-8-17,58.0,53.9,51.3,41.0,38.6,37.0,61,56,50,30.03,29.91,1,0,1,0.00
2012-9-20,77.0,66.7,57.0,29.9,26.9,22.4,31,23,15,30.03,29.92,3,0,4,0.00
2012-9-21,78.5,60.7,47.7,36.1,29.5,25.1,53,32,15,30.12,29.93,10,0,11,0.00
2012-9-22,77.9,60.1,48.2,37.2,32.2,28.6,52,36,21,30.08,29.88,6,0,7,0.00
2012-9-23,72.0,59.1,49.9,35.8,32.0,29.1,54,37,23,30.02,29.89,6,0,7,0.00
2012-9-24,76.0,59.3,48.2,35.9,33.4,30.5,54,39,21,29.98,29.79,6,0,7,0.00
2012-9-25,71.8,59.4,49.9,41.9,36.4,30.7,62,44,24,29.90,29.78,6,0,7,0.00
2012-9-26,66.6,54.3,45.1,44.3,39.8,33.5,81,59,39,30.08,29.87,6,0,7,0.00
2012-9-27,70.1,54.4,42.1,43.6,39.3,37.2,85,60,31,30.13,29.94,7,0,11,0.00
2012-9-28,77.2,58.2,43.9,40.3,34.7,26.8,75,46,20,30.03,29.80,5,0,6,0.00
2012-9-29,72.3,63.4,56.5,43.0,35.5,31.5,53,36,24,30.00,29.81,9,0,10,0.00
2012-9-30,73.0,58.4,49.8,39.0,33.7,28.4,61,42,22,30.20,29.98,11,0,15,0.00
2012-10-1,76.0,58.5,45.5,34.2,29.1,24.5,55,36,17,30.23,29.78,12,0,15,0.00
2012-10-2,75.6,58.2,43.1,37.2,27.8,18.2,78,35,16,29.84,29.62,14,1,14,0.00
2012-10-3,43.9,33.7,30.3,37.1,28.8,24.6,91,82,72,30.59,29.84,12,1,13,0.14
2012-10-4,39.3,32.9,27.6,27.4,25.7,23.6,86,75,59,30.56,30.39,5,0,7,0.00
2012-10-5,39.8,32.0,25.0,25.2,21.0,11.9,84,65,34,30.56,30.43,10,0,11,0.00
2012-10-6,42.6,25.9,20.6,18.0,15.5,13.2,76,66,33,30.57,30.41,5,0,6,0.00
2012-10-7,59.5,52.3,44.1,25.7,23.5,19.8,47,33,23,30.04,29.95,6,0,11,0.00
2012-10-8,50.2,43.7,36.3,37.0,30.9,24.7,84,61,45,30.10,29.88,12,0,12,0.00
2012-10-9,51.0,40.9,34.6,32.0,29.1,27.0,79,64,42,30.19,30.07,6,0,6,0.00
2012-10-10,59.3,44.7,36.9,36.3,29.4,23.5,80,57,26,30.11,29.85,7,0,12,0.00
2012-10-11,49.1,39.2,33.1,33.5,29.3,25.5,79,68,50,30.23,29.99,7,0,7,0.00
2012-10-12,63.7,46.2,30.3,34.5,26.6,17.7,89,54,18,30.00,29.71,4,0,5,0.00
2012-10-13,58.3,51.6,45.4,36.8,31.2,19.3,62,46,30,30.12,29.77,12,0,15,0.00
2012-10-14,63.9,52.7,44.3,36.3,33.3,29.0,64,49,29,30.16,29.82,8,0,11,0.00
2012-10-15,61.0,51.8,44.9,44.2,35.6,28.8,74,55,38,29.85,29.68,9,0,15,0.00
2012-10-16,57.6,48.2,38.9,45.2,31.2,15.3,88,54,27,29.88,29.36,18,1,24,0.16
2012-10-17,44.2,39.1,33.1,20.0,16.5,12.0,56,40,28,30.29,29.86,16,1,23,0.00
2012-10-18,55.3,39.2,27.3,27.6,20.5,11.2,68,49,22,30.36,30.01,6,0,7,0.00
2012-10-19,66.0,52.1,41.2,37.8,28.8,22.5,57,42,25,30.01,29.55,11,0,13,0.00
2012-10-20,52.5,43.9,30.0,39.0,30.0,18.3,74,58,40,29.87,29.48,12,0,13,0.00
2012-10-21,42.2,33.1,25.3,19.7,17.7,14.2,68,54,32,30.03,29.84,11,0,12,0.00
2012-10-22,38.0,30.0,25.3,29.4,20.8,14.6,88,69,50,29.96,29.74,3,0,5,0.00
2012-10-23,26.3,24.3,20.5,23.2,20.7,16.7,88,86,83,30.15,29.75,4,0,4,0.00
2012-10-24,30.3,23.5,17.2,24.7,19.3,12.8,87,84,78,30.35,30.15,5,0,5,0.00
2012-10-25,24.7,21.0,16.7,18.7,15.2,10.9,85,78,65,30.65,30.33,3,0,4,0.00
2012-10-26,32.4,24.1,13.8,24.9,18.6,8.8,86,80,66,30.64,30.22,3,0,3,0.01
2012-10-27,38.2,31.8,27.3,32.2,28.0,23.1,91,86,76,30.22,30.01,5,0,5,0.14
2012-10-28,51.7,41.7,33.5,42.1,35.7,30.9,91,80,59,30.01,29.84,7,0,14,0.21
2012-10-29,58.1,49.7,44.8,42.7,37.2,28.0,80,63,43,29.98,29.82,10,0,13,0.01
2012-10-30,61.3,48.6,39.3,34.8,31.3,26.4,73,53,27,30.08,29.88,12,0,14,0.00
2012-10-31,59.2,51.1,46.5,39.6,34.0,30.1,61,52,36,29.96,29.75,3,0,4,0.00
2012-11-1,55.3,48.7,39.6,35.4,32.0,28.5,71,53,41,29.94,29.69,9,0,9,0.00
2012-11-2,48.8,42.6,36.2,36.2,32.2,26.3,90,68,43,30.17,29.85,9,0,10,0.03
2012-11-3,42.9,42.9,42.9,31.6,31.6,31.6,64,64,64,30.10,29.89,0,0,0,0.00
2012-11-4,55.0,48.7,42.9,36.6,33.7,31.6,64,56,47,30.22,29.93,8,0,10,0.00
2012-11-5,53.9,53.9,53.9,35.7,35.7,35.7,50,50,50,30.19,29.98,0,0,0,0.00
2012-11-6,53.9,19.4,0.0,35.7,12.8,0.0,50,18,50,30.08,29.74,0,0,0,0.00
2012-11-7,0.0,0.0,0.0,0.0,0.0,0.0,0,0,100,29.81,29.56,0,0,0,0.00
2012-11-8,0.0,0.0,0.0,0.0,0.0,0.0,0,0,100,29.80,29.52,0,0,0,0.00
2012-11-9,14.8,4.7,0.0,9.0,2.3,0.0,79,32,75,30.23,29.51,4,0,6,0.00
2012-11-10,12.1,6.2,-0.2,3.8,-1.1,-7.3,78,71,60,30.41,30.21,3,0,4,0.00
2012-11-11,21.4,13.9,-0.6,12.7,6.8,-8.0,83,73,63,30.50,30.33,7,0,10,0.00
2012-11-12,30.4,22.9,14.8,24.7,16.2,8.9,86,75,56,30.49,30.31,4,0,4,0.03
2012-11-13,38.8,32.6,30.0,30.8,26.7,23.4,88,79,63,30.36,30.18,6,0,11,0.17
2012-11-14,38.5,32.1,28.2,28.5,25.6,22.2,82,77,64,30.35,30.18,7,0,9,0.07
2012-11-15,34.1,29.4,25.4,25.9,21.9,19.2,82,73,60,30.41,30.13,6,0,7,0.00
2012-11-16,36.9,31.0,24.7,30.4,23.8,18.8,90,75,54,30.14,30.02,3,0,3,0.10
2012-11-17,40.3,35.0,29.4,31.0,28.9,25.2,91,79,67,30.10,29.75,5,0,7,0.11
2012-11-18,40.8,35.3,27.5,32.3,26.3,17.3,83,70,43,30.09,29.69,9,0,11,0.18
2012-11-19,44.2,35.9,27.6,29.6,24.2,15.1,71,62,48,30.11,29.89,12,0,14,0.10
2012-11-20,47.6,41.9,37.8,32.6,31.3,28.7,74,66,52,29.95,29.77,12,0,12,0.04
2012-11-21,40.2,36.1,28.2,36.2,28.0,14.0,91,73,40,30.07,29.70,13,0,18,0.18
2012-11-22,34.7,29.2,23.8,22.2,15.9,11.4,73,58,39,30.61,30.06,13,1,19,0.00
2012-11-23,35.0,27.7,21.0,25.1,18.5,12.4,74,68,56,30.57,30.16,3,0,3,0.00
2012-11-24,43.2,36.2,30.9,30.4,26.7,21.0,79,68,55,30.16,30.02,6,0,10,0.00
2012-11-25,35.6,31.1,24.7,27.7,18.8,10.0,81,61,43,30.36,29.97,10,0,14,0.00
2012-11-26,29.7,23.0,19.1,16.7,12.7,9.0,72,64,51,30.46,30.31,3,0,3,0.00
2012-11-27,34.7,27.4,21.0,22.5,16.6,11.9,70,64,51,30.39,30.21,2,0,3,0.00
2012-11-28,39.9,32.0,27.2,25.9,21.7,17.4,72,66,55,30.21,29.92,3,0,6,0.00
2012-11-29,47.1,39.5,34.1,30.7,27.8,23.8,83,63,42,29.98,29.79,10,0,12,0.00
2012-11-30,47.7,40.3,36.2,37.2,31.3,26.9,91,71,51,29.80,29.56,10,0,11,0.05
2012-12-1,48.0,39.5,34.7,34.0,30.1,26.2,85,70,46,29.80,29.65,14,1,17,0.01
2012-12-2,50.8,40.7,30.4,37.2,29.2,17.6,86,64,47,29.81,29.16,20,1,20,0.05
2012-12-3,41.1,34.5,30.7,23.6,19.9,17.0,64,55,38,30.21,29.80,11,0,17,0.00
2012-12-4,45.8,38.8,31.6,32.1,25.7,17.5,71,59,47,30.20,29.86,13,1,15,0.00
2012-12-5,47.1,39.0,26.9,36.0,26.0,14.5,76,60,41,30.12,29.71,17,1,19,0.00
2012-12-6,33.7,28.3,24.5,22.2,18.8,16.4,79,68,51,30.16,30.01,4,0,5,0.00
2012-12-7,34.7,29.1,24.2,24.2,16.9,11.2,85,61,38,30.06,29.71,12,1,12,0.00
2012-12-8,25.7,16.6,5.4,22.0,9.9,-0.8,86,75,55,30.49,29.72,16,1,16,0.00
2012-12-9,22.1,11.0,1.1,16.9,4.7,-5.2,83,75,59,30.67,30.23,7,0,7,0.00
2012-12-10,30.3,27.1,22.1,21.0,18.0,14.9,82,69,54,30.23,30.04,13,1,14,0.00
2012-12-11,40.2,33.5,30.1,25.7,23.5,20.0,78,67,50,30.04,29.57,10,0,16,0.09
2012-12-12,35.9,30.9,26.7,29.6,25.8,21.9,89,81,70,29.92,29.55,3,0,4,0.06
2012-12-13,28.2,22.9,17.2,23.7,16.5,11.6,84,76,61,30.06,29.91,4,0,5,0.00
2012-12-14,28.1,21.4,13.8,20.5,15.2,8.7,86,77,65,29.97,29.81,3,0,3,0.00
2012-12-15,28.5,23.1,17.8,18.9,15.2,11.7,82,72,57,29.98,29.74,3,0,4,0.00
2012-12-16,30.3,23.9,18.8,15.5,11.3,4.6,78,59,37,29.84,29.65,9,0,10,0.00
2012-12-17,34.1,28.3,22.2,27.8,18.0,6.0,85,65,43,29.71,29.43,11,0,17,0.00
2012-12-18,25.0,20.7,13.5,9.8,4.5,-0.9,64,50,34,30.09,29.70,11,1,12,0.00
2012-12-19,23.9,18.9,9.7,6.4,2.0,-0.8,65,47,35,30.30,30.09,10,1,12,0.00
2012-12-20,31.6,24.0,17.3,14.7,8.3,2.0,58,51,39,30.27,30.09,11,1,15,0.00
2012-12-21,33.8,29.6,25.1,20.3,13.3,5.0,64,51,32,30.12,29.98,5,0,7,0.00
2012-12-22,27.5,19.5,13.3,14.2,10.7,6.3,75,68,50,30.10,29.93,3,0,4,0.00
2012-12-23,31.5,23.1,13.1,19.4,13.3,6.1,89,67,39,30.18,29.89,10,0,11,0.00
2012-12-24,13.6,3.7,0.5,8.6,-4.0,-8.6,81,70,61,30.63,29.94,5,0,6,0.00
2012-12-25,9.5,4.9,0.5,3.5,-2.1,-7.3,77,72,65,30.63,30.17,2,0,2,0.00
2012-12-26,19.9,15.8,9.3,15.4,10.1,3.3,84,78,69,30.17,29.93,1,0,2,0.00
2012-12-27,30.1,23.1,16.2,20.5,15.9,11.1,86,74,56,30.14,29.97,6,0,6,0.00
2012-12-28,29.3,24.2,18.3,17.7,13.2,10.0,73,63,45,30.29,30.05,12,0,12,0.00
2012-12-29,23.8,19.2,15.6,13.5,8.7,5.7,73,64,49,30.30,30.17,6,0,10,0.00
2012-12-30,23.9,17.5,12.3,14.3,9.9,6.2,83,72,53,30.36,30.19,7,0,7,0.00
2012-12-31,23.3,18.0,12.4,12.9,8.9,4.5,73,67,55,30.40,30.26,3,0,5,0.00
2013-1-1,28.7,19.6,13.3,16.0,10.4,5.1,77,67,51,30.61,30.38,4,0,7,0.00